Regional Weather Roundup
Issued by NWS Cleveland, OH

Home | Current Version | Previous Version | Text Only | Print | Product List | Glossary Off
Versions: 1 2 3 4 5 6 7 8 9 10 11 12 13 14 15 16 17 18 19 20 21 22 23 24 25 26 27 28 29 30 31 32 33 34 35 36 37 38 39 40 41 42 43 44 45 46 47 48 49 50

000
ASUS41 KCLE 031510
RWRCLE
OHIO REGIONAL WEATHER ROUNDUP
NATIONAL WEATHER SERVICE CLEVELAND, OH
1100 AM EDT WED JUN 03 2015

NOTE: "FAIR" INDICATES FEW OR NO CLOUDS BELOW 12,000 FEET WITH NO
SIGNIFICANT WEATHER AND/OR OBSTRUCTIONS TO VISIBILITY.

OHZ001>008-015>018-024>027-034-035-043-044-031600-
   NORTHWEST OHIO

CITY           SKY/WX    TMP DP  RH WIND       PRES   REMARKS
DEFIANCE       CLOUDY    66  55  67 E7        30.12F
FINDLAY        CLOUDY    67  56  67 E7        30.11S
TOLEDO EXPRESS MOSUNNY   67  53  61 SE9G16    30.12F
TOLEDO EXEC    MOSUNNY   68  52  56 SE10      30.13F
LIMA           CLOUDY    64  56  75 NE5       30.11F
$$

OHZ009>014-019>023-028>033-038-089-031600-
   NORTHEAST OHIO

CITY           SKY/WX    TMP DP  RH WIND       PRES   REMARKS
CLE-HOPKINS    MOSUNNY   67  45  45 E10       30.13F
CLE-LAKEFRONT  SUNNY     62  54  74 N14       30.12F
CUY CO. ARPT   SUNNY     68 N/A N/A SE9       30.14F
LORAIN-ELYRIA  SUNNY     66  51  58 E8        30.13F
ASHTABULA      SUNNY     64  52  64 SE7       30.16F
AKRON-CANTON   PTSUNNY   63  54  72 E10       30.13F
WOOSTER        PTSUNNY   63  56  78 SE9       30.13F
MANSFIELD      PTSUNNY   62  54  74 SE8       30.12F
YOUNGSTOWN     MOSUNNY   63  53  70 E9        30.15S
$$

OHZ042-051>053-060>062-070>072-077>081-031600-
  SOUTHWEST OHIO

CITY           SKY/WX    TMP DP  RH WIND       PRES   REMARKS
CINC-COVINGTON CLOUDY    63  56  78 NE3       30.08F HAZE
CINC-LUNKEN    CLOUDY    64  57  78 CALM      30.09S
HAMILTON       CLOUDY    65  57  75 VRB3      30.10S
DAYTON         CLOUDY    64  57  78 NE5       30.10F
WRIGHT-PAT AFB CLOUDY    63  57  79 NE5       30.09F
DAYTON GENERAL CLOUDY    63  56  78 E6        30.09S
WILMINGTON     CLOUDY    64  56  75 MISG      30.08F
$$

OHZ036-037-039>041-045>050-054>059-063>069-073>076-082>088-031600-
  CENTRAL AND SOUTHEAST OHIO

CITY           SKY/WX    TMP DP  RH WIND       PRES   REMARKS
COLUMBUS       CLOUDY    66  56  70 NE6       30.09F
OSU AIRPORT    CLOUDY    66  56  70 E6        30.09F
BOLTON FIELD   CLOUDY    64  57  77 E3        30.09F
RICKENBACK AFB CLOUDY    65  57  73 CALM      30.08F
NEWARK         CLOUDY    66  56  70 E6        30.09F
MARION         CLOUDY    65  55  70 SE8       30.11F
LANCASTER      CLOUDY    67  57  70 E5        30.09F
ZANESVILLE     NOT AVBL
NEW PHILLY     CLOUDY    67  56  67 E6        30.12F
$$



USA.gov is the U.S. government's official web portal to all federal, state and local government web resources and services.